| time (UTC) | temp F | wind direction | speed MPH | gust MPH | rain 1hr in | rain 24hr in | rain mn in | humidity % | barometer mb |
| 20260904023519 | 71 | 0.0 | 0.0 | 0.17 | 0.92 | 0.92 | 92 | 1012.4 | |
| 20260904022539 | 71 | 0.0 | 0.0 | 0.28 | 0.96 | 0.92 | 92 | 1012.5 | |
| 20260904021519 | 71 | 0.0 | 0.0 | 0.40 | 0.97 | 0.92 | 92 | 1012.5 | |
| 20260904020559 | 72 | 0.0 | 0.0 | 0.51 | 0.98 | 0.92 | 92 | 1012.5 | |
| 20260904015519 | 72 | 0.0 | 0.0 | 0.61 | 0.96 | 0.90 | 92 | 1012.3 | |
| 20260904014539 | 72 | 0.0 | 0.0 | 0.59 | 0.93 | 0.84 | 92 | 1012.3 | |
| 20260904013519 | 72 | 0.0 | 0.0 | 0.50 | 0.87 | 0.75 | 92 | 1012.3 | |
| 20260904012530 | 73 | 0.0 | 0.0 | 0.39 | 0.76 | 0.64 | 92 | 1012.3 | |
| 20260904011542 | 73 | 0.0 | 2.0 | 0.27 | 0.64 | 0.52 | 92 | 1012.6 | |
| 20260904010603 | 74 | 0.0 | 0.0 | 0.16 | 0.54 | 0.41 | 93 | 1012.4 | |
| 20260904005552 | 74 | 0.0 | 0.0 | 0.04 | 0.43 | 0.29 | 93 | 1012.3 | |
| 20260904004526 | 74 | 0.0 | 0.0 | 0.00 | 0.40 | 0.25 | 92 | 1011.8 | |
| 20260904003519 | 74 | 0.0 | 0.0 | 0.00 | 0.42 | 0.25 | 91 | 1011.8 | |
| 20260904002539 | 74 | 0.0 | 0.0 | 0.00 | 0.44 | 0.25 | 91 | 1011.6 | |
| 20260904001519 | 74 | 0.0 | 0.0 | 0.00 | 0.47 | 0.25 | 91 | 1011.7 | |
| 20260904000519 | 74 | 0.0 | 0.0 | 0.00 | 0.53 | 0.25 | 91 | 1011.8 | |
| 20260903235519 | 74 | 0.0 | 0.0 | 0.00 | 0.71 | 0.25 | 91 | 1011.8 | |
| 20260903234519 | 74 | 0.0 | 0.0 | 0.00 | 1.18 | 0.25 | 91 | 1011.8 | |
| 20260903233539 | 74 | 0.0 | 0.0 | 0.00 | 1.77 | 0.25 | 91 | 1011.8 | |
| 20260903232519 | 75 | 0.0 | 0.0 | 0.00 | 1.94 | 0.25 | 90 | 1011.8 | |
| 20260903231520 | 75 | 0.0 | 0.0 | 0.00 | 1.94 | 0.25 | 90 | 1012.0 | |
| 20260903230519 | 75 | 0.0 | 0.0 | 0.00 | 2.03 | 0.25 | 90 | 1011.8 | |
| 20260903225519 | 75 | 0.0 | 0.0 | 0.00 | 2.03 | 0.25 | 90 | 1011.8 | |
| 20260903224520 | 75 | 0.0 | 0.0 | 0.00 | 2.03 | 0.25 | 90 | 1011.7 | |
| 20260903223519 | 75 | 0.0 | 0.0 | 0.00 | 2.03 | 0.25 | 91 | 1011.6 | |
| 20260903222519 | 75 | 0.0 | 0.0 | 0.00 | 2.03 | 0.25 | 90 | 1011.4 | |
| 20260903221519 | 75 | 0.0 | 0.0 | 0.00 | 2.03 | 0.25 | 90 | 1011.5 | |
| 20260903220521 | 75 | 0.0 | 0.0 | 0.01 | 2.03 | 0.25 | 89 | 1011.3 | |
| 20260903215519 | 75 | 0.0 | 0.0 | 0.12 | 2.03 | 0.25 | 89 | 1011.4 | |
| 20260903214519 | 75 | 0.0 | 0.0 | 0.24 | 2.03 | 0.25 | 88 | 1011.5 | |
| 20260903213518 | 75 | 0.0 | 0.0 | 0.24 | 2.03 | 0.25 | 88 | 1011.5 | |
| 20260903212519 | 75 | 0.0 | 0.0 | 0.24 | 2.03 | 0.25 | 86 | 1011.6 | |
| 20260903211559 | 75 | 0.0 | 0.0 | 0.24 | 2.03 | 0.25 | 87 | 1011.6 | |
| 20260903210519 | 76 | 0.0 | 0.0 | 0.23 | 2.02 | 0.24 | 86 | 1011.6 | |
| 20260903205519 | 76 | 0.0 | 0.0 | 0.12 | 1.91 | 0.13 | 84 | 1011.8 | |
| 20260903204519 | 77 | 0.0 | 0.0 | 0.00 | 1.79 | 0.01 | 82 | 1011.8 | |
| 20260903203519 | 78 | 0.0 | 0.0 | 0.00 | 1.79 | 0.01 | 81 | 1011.8 | |
| 20260903202559 | 78 | 0.0 | 0.0 | 0.00 | 1.79 | 0.01 | 80 | 1011.9 | |
| 20260903201541 | 79 | 0.0 | 0.0 | 0.00 | 1.79 | 0.01 | 80 | 1012.0 | |
| 20260903200520 | 80 | 0.0 | 3.0 | 0.00 | 1.79 | 0.01 | 79 | 1011.9 | |
| 20260903195519 | 80 | 0.0 | 0.0 | 0.00 | 1.79 | 0.01 | 79 | 1011.8 | |
| 20260903194601 | 81 | 0.0 | 0.0 | 0.00 | 1.79 | 0.01 | 78 | 1011.8 | |
| 20260903193520 | 81 | 0.0 | 2.0 | 0.00 | 1.79 | 0.01 | 77 | 1011.8 | |
| 20260903192541 | 82 | 0.0 | 0.0 | 0.00 | 1.79 | 0.01 | 76 | 1011.9 | |
| 20260903191521 | 83 | 225 | 1.0 | 7.0 | 0.00 | 1.79 | 0.01 | 74 | 1012.0 |
| 20260903190521 | 84 | 0.0 | 0.0 | 0.00 | 1.79 | 0.01 | 75 | 1011.7 | |
| 20260903185519 | 84 | 0.0 | 2.0 | 0.00 | 1.79 | 0.01 | 74 | 1011.7 | |
| 20260903184521 | 84 | 0.0 | 0.0 | 0.00 | 1.79 | 0.01 | 74 | 1012.0 | |
| 20260903183521 | 85 | 0.0 | 0.0 | 0.00 | 1.79 | 0.01 | 72 | 1012.2 | |
| 20260903182541 | 85 | 0.0 | 1.0 | 0.00 | 1.79 | 0.01 | 72 | 1012.2 | |
| 20260903181520 | 86 | 0.0 | 2.0 | 0.00 | 1.79 | 0.01 | 71 | 1012.0 | |
| 20260903180521 | 86 | 0.0 | 0.0 | 0.00 | 1.79 | 0.01 | 70 | 1012.2 | |
| 20260903175520 | 86 | 270 | 1.0 | 5.0 | 0.00 | 1.79 | 0.01 | 72 | 1012.1 |
| 20260903174541 | 86 | 0.0 | 0.0 | 0.00 | 1.79 | 0.01 | 72 | 1012.2 | |
| 20260903173521 | 85 | 0.0 | 0.0 | 0.00 | 1.79 | 0.01 | 72 | 1012.3 | |
| 20260903172521 | 85 | 0.0 | 0.0 | 0.00 | 1.79 | 0.01 | 71 | 1012.3 | |
| 20260903171521 | 84 | 0.0 | 3.0 | 0.00 | 1.79 | 0.01 | 72 | 1012.2 | |
| 20260903170521 | 83 | 0.0 | 0.0 | 0.00 | 1.79 | 0.01 | 74 | 1012.5 | |
| 20260903165522 | 83 | 0.0 | 1.0 | 0.00 | 1.79 | 0.01 | 78 | 1012.5 | |
| 20260903164541 | 82 | 0.0 | 1.0 | 0.00 | 1.79 | 0.01 | 80 | 1012.4 | |
| 20260903163521 | 81 | 0.0 | 0.0 | 0.00 | 1.79 | 0.01 | 82 | 1012.5 | |
| 20260903162521 | 80 | 0.0 | 1.0 | 0.00 | 1.79 | 0.01 | 79 | 1012.6 | |
| 20260903161521 | 79 | 0.0 | 0.0 | 0.00 | 1.79 | 0.01 | 85 | 1012.7 | |
| 20260903160521 | 78 | 0.0 | 0.0 | 0.00 | 1.79 | 0.01 | 84 | 1012.9 | |
| 20260903155521 | 77 | 0.0 | 0.0 | 0.00 | 1.79 | 0.01 | 93 | 1013.0 | |
| 20260903154520 | 76 | 0.0 | 1.0 | 0.00 | 1.79 | 0.01 | 93 | 1013.1 | |
| 20260903153519 | 75 | 0.0 | 0.0 | 0.00 | 1.79 | 0.01 | 95 | 1013.2 | |
| 20260903152521 | 75 | 0.0 | 1.0 | 0.00 | 1.79 | 0.01 | 96 | 1013.2 | |
| 20260903151521 | 75 | 0.0 | 2.0 | 0.00 | 1.79 | 0.01 | 97 | 1013.1 | |
| 20260903150521 | 75 | 0.0 | 0.0 | 0.00 | 1.79 | 0.01 | 97 | 1013.2 | |
| 20260903145521 | 75 | 0.0 | 0.0 | 0.00 | 1.79 | 0.01 | 97 | 1013.2 | |
| 20260903144521 | 74 | 0.0 | 0.0 | 0.00 | 1.79 | 0.01 | 98 | 1013.3 | |
| 20260903143541 | 74 | 0.0 | 0.0 | 0.00 | 1.79 | 0.01 | 98 | 1013.3 | |
| 20260903142521 | 74 | 0.0 | 0.0 | 0.00 | 1.79 | 0.01 | 97 | 1013.3 | |
| 20260903141521 | 73 | 0.0 | 0.0 | 0.00 | 1.79 | 0.01 | 98 | 1013.2 | |
| 20260903140522 | 73 | 0.0 | 0.0 | 0.00 | 1.79 | 0.01 | 97 | 1013.2 | |
| 20260903135521 | 73 | 0.0 | 2.0 | 0.00 | 1.79 | 0.01 | 97 | 1013.1 | |
| 20260903134601 | 72 | 0.0 | 0.0 | 0.00 | 1.79 | 0.01 | 97 | 1013.1 | |
| 20260903133521 | 72 | 0.0 | 2.0 | 0.00 | 1.79 | 0.01 | 97 | 1013.2 | |
| 20260903132521 | 72 | 0.0 | 3.0 | 0.00 | 1.79 | 0.01 | 97 | 1013.3 | |
| 20260903131541 | 72 | 0.0 | 2.0 | 0.00 | 1.79 | 0.01 | 97 | 1013.4 | |
| 20260903130521 | 71 | 0.0 | 4.0 | 0.00 | 1.81 | 0.01 | 97 | 1013.4 | |
| 20260903125520 | 71 | 0.0 | 3.0 | 0.00 | 1.83 | 0.01 | 97 | 1013.4 | |
| 20260903124521 | 71 | 0.0 | 1.0 | 0.00 | 1.84 | 0.01 | 97 | 1013.5 | |
| 20260903123521 | 71 | 0.0 | 0.0 | 0.00 | 1.85 | 0.01 | 97 | 1013.4 | |
| 20260903122521 | 70 | 0.0 | 0.0 | 0.00 | 1.86 | 0.01 | 97 | 1013.5 | |
| 20260903121521 | 70 | 0.0 | 0.0 | 0.00 | 1.86 | 0.01 | 97 | 1013.4 | |
| 20260903120521 | 70 | 0.0 | 0.0 | 0.00 | 1.86 | 0.01 | 97 | 1013.2 | |
| 20260903115521 | 69 | 0.0 | 0.0 | 0.00 | 1.86 | 0.01 | 96 | 1013.0 | |
| 20260903114521 | 69 | 0.0 | 0.0 | 0.01 | 1.86 | 0.01 | 96 | 1013.0 | |
| 20260903113521 | 69 | 0.0 | 0.0 | 0.01 | 1.86 | 0.01 | 96 | 1012.9 | |
| 20260903112521 | 69 | 0.0 | 0.0 | 0.01 | 1.86 | 0.01 | 96 | 1012.8 | |
| 20260903111541 | 69 | 0.0 | 0.0 | 0.01 | 1.86 | 0.01 | 96 | 1012.8 | |
| 20260903110521 | 69 | 0.0 | 0.0 | 0.01 | 1.86 | 0.01 | 96 | 1012.6 | |
| 20260903105521 | 68 | 0.0 | 0.0 | 0.01 | 1.86 | 0.01 | 96 | 1012.6 | |
| 20260903104521 | 68 | 0.0 | 0.0 | 0.00 | 1.85 | 0.00 | 96 | 1012.6 | |
| 20260903103521 | 68 | 0.0 | 0.0 | 0.00 | 1.85 | 0.00 | 96 | 1012.5 | |
| 20260903102521 | 68 | 0.0 | 0.0 | 0.00 | 1.85 | 0.00 | 96 | 1012.2 | |
| 20260903101521 | 68 | 0.0 | 0.0 | 0.00 | 1.85 | 0.00 | 96 | 1012.1 | |
| 20260903100521 | 68 | 0.0 | 0.0 | 0.00 | 1.85 | 0.00 | 96 | 1012.0 | |
| 20260903095541 | 68 | 0.0 | 0.0 | 0.00 | 1.85 | 0.00 | 96 | 1012.2 | |
| 20260903094521 | 68 | 0.0 | 0.0 | 0.00 | 1.85 | 0.00 | 96 | 1012.2 | |
| 20260903093521 | 68 | 0.0 | 0.0 | 0.00 | 1.85 | 0.00 | 96 | 1012.2 | |
| 20260903092541 | 68 | 0.0 | 0.0 | 0.00 | 1.85 | 0.00 | 96 | 1012.1 | |
| 20260903091521 | 68 | 0.0 | 0.0 | 0.00 | 1.85 | 0.00 | 96 | 1012.2 | |
| 20260903090521 | 69 | 0.0 | 0.0 | 0.00 | 1.85 | 0.00 | 96 | 1012.2 | |
| 20260903085521 | 69 | 0.0 | 0.0 | 0.00 | 1.85 | 0.00 | 96 | 1012.1 | |
| 20260903084521 | 69 | 0.0 | 0.0 | 0.00 | 1.85 | 0.00 | 96 | 1012.1 | |
| 20260903083520 | 69 | 0.0 | 0.0 | 0.00 | 1.85 | 0.00 | 96 | 1012.0 | |
| 20260903082521 | 69 | 0.0 | 0.0 | 0.00 | 1.85 | 0.00 | 96 | 1012.0 | |
| 20260903081521 | 69 | 0.0 | 0.0 | 0.00 | 1.85 | 0.00 | 96 | 1012.0 | |
| 20260903080521 | 69 | 0.0 | 0.0 | 0.00 | 1.85 | 0.00 | 96 | 1011.9 | |
| 20260903075521 | 69 | 0.0 | 0.0 | 0.00 | 1.85 | 0.00 | 96 | 1011.8 | |
| 20260903074521 | 69 | 0.0 | 0.0 | 0.00 | 1.85 | 0.00 | 96 | 1011.7 | |
| 20260903073521 | 69 | 0.0 | 0.0 | 0.00 | 1.85 | 0.00 | 96 | 1011.8 | |
| 20260903072521 | 69 | 0.0 | 0.0 | 0.00 | 1.85 | 0.00 | 96 | 1011.8 | |
| 20260903071521 | 69 | 0.0 | 0.0 | 0.00 | 1.85 | 0.00 | 96 | 1011.9 | |
| 20260903070521 | 69 | 0.0 | 0.0 | 0.00 | 1.85 | 0.00 | 96 | 1012.0 | |
| 20260903065521 | 69 | 0.0 | 0.0 | 0.00 | 1.85 | 0.00 | 96 | 1012.2 | |
| 20260903064541 | 70 | 0.0 | 0.0 | 0.00 | 1.85 | 0.00 | 96 | 1012.1 | |
| 20260903063521 | 70 | 0.0 | 0.0 | 0.00 | 1.85 | 0.00 | 96 | 1012.1 | |
| 20260903062521 | 70 | 0.0 | 0.0 | 0.00 | 1.85 | 0.00 | 96 | 1012.1 | |
| 20260903061521 | 70 | 0.0 | 0.0 | 0.00 | 1.85 | 0.00 | 96 | 1012.0 | |
| 20260903060521 | 70 | 0.0 | 0.0 | 0.00 | 1.85 | 0.00 | 96 | 1012.1 | |
| 20260903055601 | 69 | 0.0 | 0.0 | 0.00 | 1.85 | 0.00 | 95 | 1012.1 | |
| 20260903054521 | 69 | 0.0 | 0.0 | 0.00 | 1.85 | 0.00 | 95 | 1012.2 | |
| 20260903053521 | 69 | 0.0 | 0.0 | 0.00 | 1.85 | 0.00 | 95 | 1012.3 | |
| 20260903052521 | 69 | 0.0 | 0.0 | 0.00 | 1.85 | 0.00 | 95 | 1011.9 | |
| 20260903051521 | 69 | 0.0 | 0.0 | 0.00 | 1.85 | 0.00 | 95 | 1011.6 | |
| 20260903050521 | 70 | 0.0 | 0.0 | 0.00 | 1.85 | 0.00 | 95 | 1011.8 | |
| 20260903045521 | 70 | 0.0 | 0.0 | 0.00 | 1.85 | 0.00 | 95 | 1011.6 | |
| 20260903044520 | 70 | 0.0 | 0.0 | 0.00 | 1.85 | 0.00 | 95 | 1011.5 | |
| 20260903043520 | 70 | 0.0 | 0.0 | 0.00 | 1.85 | 0.00 | 95 | 1011.6 | |
| 20260903042521 | 70 | 0.0 | 0.0 | 0.00 | 1.85 | 0.00 | 95 | 1011.4 | |
| 20260903041520 | 70 | 0.0 | 0.0 | 0.00 | 1.85 | 0.00 | 95 | 1011.3 | |
| 20260903040521 | 70 | 0.0 | 0.0 | 0.00 | 1.85 | 0.00 | 95 | 1011.3 | |
| 20260903035520 | 70 | 0.0 | 0.0 | 0.00 | 1.85 | 0.29 | 95 | 1011.2 | |
| 20260903034520 | 70 | 0.0 | 0.0 | 0.00 | 1.85 | 0.29 | 95 | 1011.5 | |
| 20260903033519 | 70 | 0.0 | 1.0 | 0.00 | 1.85 | 0.29 | 95 | 1011.8 | |
| 20260903032519 | 70 | 0.0 | 0.0 | 0.04 | 1.85 | 0.29 | 95 | 1011.9 | |
| 20260903031519 | 70 | 0.0 | 0.0 | 0.05 | 1.85 | 0.29 | 95 | 1012.0 | |
| 20260903030520 | 70 | 0.0 | 2.0 | 0.06 | 1.85 | 0.29 | 95 | 1012.0 | |
| 20260903025520 | 70 | 0.0 | 0.0 | 0.06 | 1.85 | 0.29 | 95 | 1012.0 | |
| 20260903024519 | 70 | 0.0 | 0.0 | 0.09 | 1.85 | 0.29 | 95 | 1012.2 |